THOR ABLESTAR DEB, 13514

Orbit data source: Space-Track

THOR ABLESTAR DEB, 13514 is space debris in LEO originally from a launch on Thu, 29 Jun 1961 UTC launched from the Air Force Eastern Test Range (AFETR). Debris objects in space refer to the collection of defunct objects orbiting the Earth. Examples of debris include non-operational satellites, rocket bodies, and fragments generated from explosions, collisions, or faulty payload assembly.

Loading next visibility...
Identifier
13514, 1961-015KX
Orbit
LEO
Country
Flag of USUS
Related business
Manufacturer
Unknown
Mission
Spacecraft
Bus & Motor
Unknown
Mass
Unknown
Launch date (UTC)
1961-06-29 (65 years ago)
Launch vehicle
Unknown
Launch site
Air Force Eastern Test Range (AFETR)
Object type
Payload
Rocket body
Debris
Shape & HBR
Unknown shape, 0.1 m
Radar Cross Section
Small (<0.1 m²)

Expand to show TLE details & history
Last TLE update: 7 hours ago

TLE from 7 hours ago
0 THOR ABLESTAR DEB
1 13514U 61015KX  26121.47610220  .00000288  00000-0  46121-3 0  9996
2 13514  66.7128 132.6939 0236335  57.6841  91.3459 13.51302428258254
Epoch: 2026-05-01T11:25Z
TLE epoch observation values (Epoch: 2026-05-01T11:25:35.230Z)
Latitude
25.82985°
Longitude
-90.07325°
Altitude
1,078.024 km
Speed
7.312 km/s
True Right ascension
20h 02m 55s
True Declination
25° 42' 04"
Sunlit
Object was in daylight at epoch
Visualization orbit readout
Latitude
Unknown
Longitude
Unknown
Altitude
Unknown
Speed
Unknown
Apparent Right ascension
Unknown
Apparent Declination
Unknown
Sunlit
N/A
Visualization observer readout
Local Sidereal Time
02:23:31
Azimuth
Unknown
Elevation
Unknown
Doppler factor
Unknown
Orbital elements
Apogee altitude
1,241.832 km
Perigee altitude
889.974 km
Semi-major axis
7,444.04 km
Eccentricity
0.02363
Inclination
66.7128°
RAAN
132.6939°
Arg. of periapsis
57.6841°
True anomaly
94.05047°
Mean anomaly
91.3459°
Eccentric anomaly
92.6985°
Mean motion
3.37933 °/min
Orbital period
106.53 mins
BSTAR
0.00046121

Documentation

Showing up to 5 results
|